This demonstration page uses our WeatherBlox Daily Observations layout. Learn more.

Hourly Observations for July 30, 2017

Temp ( °F °C ) Dew Point ( °F °C ) Humidity (%) Winds ( mph kmh ) Pressure ( in mb ) Visibility ( mi km ) Precip ( " mm )
12:54 am 00:54 Mostly Clear 72 22.2 64 17.8 76 76 ESE 7 11 30.12 1020 10 16.0934 0 0
1:54 am 01:54 Clear 71 21.7 64 17.8 79 79 SW 5 7 30.13 1020 10 16.0934 0 0
2:54 am 02:54 Clear 68 20 63 17.2 84 84 SSE 5 7 30.13 1020 10 16.0934 0 0
3:54 am 03:54 Mostly Cloudy 68 20 63 17.2 84 84 Calm 30.13 1020 10 16.0934 0 0
4:54 am 04:54 Partly Cloudy 68 20 63 17.2 84 84 Calm 30.14 1021 10 16.0934 0 0
5:54 am 05:54 Cloudy 68 20 63 17.2 84 84 ESE 5 7 30.14 1021 10 16.0934 0 0
6:54 am 06:54 Cloudy 69 20.6 63 17.2 81 81 ESE 5 7 30.15 1021 10 16.0934 0 0
7:54 am 07:54 Cloudy 72 22.2 61 16.1 68 68 SSE 6 9 30.17 1022 10 16.0934 0 0
8:54 am 08:54 Mostly Cloudy 73 22.8 61 16.1 66 66 SSW 5 7 30.18 1022 10 16.0934 0 0
9:54 am 09:54 Sunny 75 23.9 60 15.6 60 60 SSE 7 11 30.19 1022 10 16.0934 0 0
10:54 am 10:54 Mostly Sunny 77 25 61 16.1 58 58 SW 8 13 30.19 1022 10 16.0934 0 0
11:54 am 11:54 Sunny 78 25.6 63 17.2 60 60 SW 7 11 30.19 1023 10 16.0934 0 0
12:54 pm 12:54 Mostly Sunny 80 26.7 61 16.1 52 52 SSW 8 13 30.19 1022 10 16.0934 0 0
1:54 pm 13:54 Mostly Cloudy 81 27.2 63 17.2 54 54 W 6 9 30.18 1022 10 16.0934 0 0
2:54 pm 14:54 Mostly Cloudy 79 26.1 64 17.8 60 60 WNW 10 17 30.17 1022 10 16.0934 0 0
3:54 pm 15:54 Cloudy 79 26.1 64 17.8 60 60 WNW 9 15 30.16 1022 10 16.0934 0 0
4:54 pm 16:54 Cloudy 80 26.7 64 17.8 58 58 SW 5 7 30.15 1021 10 16.0934 0 0
5:54 pm 17:54 Cloudy 80 26.7 64 17.8 58 58 W 5 7 30.13 1020 10 16.0934 0 0
6:54 pm 18:54 Sunny 81 27.2 64 17.8 57 57 N 3 6 30.12 1020 10 16.0934 0 0
7:54 pm 19:54 Mostly Sunny 76 24.4 65 18.3 69 69 N 5 7 30.12 1020 10 16.0934 0 0
8:54 pm 20:54 Cloudy 76 24.4 66 18.9 72 72 NE 5 7 30.14 1021 10 16.0934 0 0
9:54 pm 21:54 Cloudy 75 23.9 63 17.2 66 66 ESE 6 9 30.14 1021 10 16.0934 0 0
10:54 pm 22:54 Clear 73 22.8 63 17.2 71 71 ESE 5 7 30.14 1021 10 16.0934 0 0
11:54 pm 23:54 Clear 72 22.2 63 17.2 73 73 ESE 6 9 30.14 1021 10 16.0934 0 0

Powered by AerisWeather